Goodland, KS

8:47 AM MST on January 24, 2017 (GMT -0700)
Renner-Goodland Municipal

Weather History for KGLD - April, 2014

Change the Weather History Date:

Thursday, April 17, 2014

  Actual Average Record
Temperature  
Mean Temperature 42 °F 50 °F  
Max Temperature 54 °F 64 °F 90 °F (2004)
Min Temperature 30 °F 35 °F 18 °F (1907)
Degree Days  
Heating Degree Days 23 16  
Month to date heating degree days 312 306  
Since 1 July heating degree days 5624 5481  
Cooling Degree Days 0 0  
Month to date cooling degree days 1 0  
Year to date cooling degree days 1 0  
Moisture  
Dew Point 33 °F    
Average Humidity 73    
Maximum Humidity 92    
Minimum Humidity 54    
Precipitation  
Precipitation 0.00 in 0.05 in 1.28 in (2009)
Month to date precipitation 0.20 0.79  
Year to date precipitation 1.56 2.73  
Snow  
Snow 0.00 in 0.10 in - ()
Month to date snowfall 0.4 3.0  
Since 1 July snowfall 29.1 33.8  
Snow Depth 0.00 in    
Sea Level Pressure  
Sea Level Pressure 30.20 in    
Wind  
Wind Speed 14 mph (SE)    
Max Wind Speed 24 mph    
Max Gust Speed 30 mph    
Visibility 9 miles    
Events      
T = Trace of Precipitation, MM = Missing Value Source: NWS Daily Summary

Daily Weather History Graph

Daily Weather History Graph

Search for Another Location

Airport or City:

Trip Planner

Search our weather history database for the weather conditions in past years. The results will help you decide how hot, cold, wet, or windy it might be!

Date:

Astronomy

Apr. 17, 2014 Rise Set
Actual Time 6:06 AM MDT 7:26 PM MDT
Civil Twilight 5:38 AM MDT 7:54 PM MDT
Nautical Twilight 5:05 AM MDT 8:28 PM MDT
Astronomical Twilight 4:30 AM MDT 9:03 PM MDT
Moon 10:13 PM MDT (4/17) 7:40 AM MDT (4/17)
Length of Visible Light 14h 15m
Length of Day
13h 19m
Waning Gibbous, 93% of the Moon is Illuminated
Apr 17
Waning Gibbous
Apr 22
Last Quarter
Apr 29
New
May 6
First Quarter
May 14
Full

Hourly Weather History & Observations

Time (MDT) Temp. Windchill Dew Point Humidity Pressure Visibility Wind Dir Wind Speed Gust Speed Precip Events Conditions
12:53 AM 37.9 °F 30.5 °F 33.1 °F 83% 30.14 in 10.0 mi ENE 11.5 mph - N/A   Clear
1:53 AM 35.1 °F 27.4 °F 32.0 °F 89% 30.15 in 10.0 mi ENE 10.4 mph - N/A   Overcast
2:53 AM 33.1 °F 27.7 °F 30.0 °F 89% 30.17 in 10.0 mi ENE 5.8 mph - N/A   Partly Cloudy
3:37 AM 33.1 °F 26.9 °F 30.0 °F 89% 30.17 in 8.0 mi ENE 6.9 mph - N/A   Overcast
3:46 AM 33.1 °F 26.9 °F 30.0 °F 89% 30.17 in 8.0 mi East 6.9 mph - N/A   Overcast
3:53 AM 32.0 °F 24.8 °F 30.0 °F 92% 30.18 in 8.0 mi East 8.1 mph - N/A   Overcast
4:53 AM 30.9 °F 24.3 °F 28.9 °F 92% 30.19 in 7.0 mi East 6.9 mph - N/A   Overcast
5:53 AM 30.0 °F 23.2 °F 28.0 °F 92% 30.21 in 7.0 mi East 6.9 mph - N/A   Overcast
6:53 AM 30.0 °F 22.4 °F 28.0 °F 92% 30.24 in 5.0 mi East 8.1 mph - N/A   Overcast
7:17 AM 30.0 °F 24.1 °F 28.0 °F 92% 30.23 in 5.0 mi East 5.8 mph - N/A   Overcast
7:53 AM 30.9 °F 26.2 °F 28.9 °F 92% 30.28 in 5.0 mi ESE 4.6 mph - N/A   Overcast
8:04 AM 30.9 °F 23.5 °F 28.9 °F 92% 30.25 in 6.0 mi ESE 8.1 mph - N/A   Overcast
8:53 AM 32.0 °F 24.8 °F 28.9 °F 88% 30.29 in 7.0 mi SE 8.1 mph - N/A   Overcast
9:53 AM 33.8 °F 27.7 °F 30.2 °F 87% 30.27 in 9.0 mi SE 6.9 mph - N/A   Overcast
10:17 AM 36.0 °F 29.6 °F 30.0 °F 79% 30.27 in 10.0 mi SE 8.1 mph - N/A   Overcast
10:53 AM 39.2 °F 32.0 °F 32.0 °F 75% 30.26 in 10.0 mi SSE 11.5 mph - N/A   Overcast
11:35 AM 42.1 °F 34.5 °F 32.0 °F 67% 30.26 in 10.0 mi SSE 15.0 mph - N/A   Overcast
11:53 AM 44.1 °F 36.8 °F 33.1 °F 65% 30.26 in 10.0 mi South 16.1 mph 21.9 mph N/A   Overcast
12:53 PM 48.9 °F - 34.0 °F 56% 30.22 in 10.0 mi South 15.0 mph - N/A   Overcast
1:00 PM 48.0 °F - 34.0 °F 58% 30.21 in 10.0 mi South 17.3 mph - N/A   Overcast
1:53 PM 52.0 °F - 35.1 °F 53% 30.20 in 10.0 mi SSW 17.3 mph - N/A   Overcast
2:53 PM 52.0 °F - 36.0 °F 54% 30.19 in 10.0 mi SSW 20.7 mph - N/A   Overcast
3:53 PM 52.0 °F - 36.0 °F 54% 30.18 in 10.0 mi SSW 20.7 mph 26.5 mph N/A   Overcast
4:53 PM 53.1 °F - 37.0 °F 55% 30.17 in 10.0 mi South 20.7 mph 26.5 mph N/A   Overcast
5:53 PM 53.1 °F - 37.0 °F 55% 30.15 in 10.0 mi South 23.0 mph 28.8 mph N/A   Scattered Clouds
6:53 PM 51.1 °F - 37.9 °F 61% 30.14 in 10.0 mi South 18.4 mph - N/A   Clear
7:53 PM 46.0 °F 39.3 °F 37.0 °F 71% 30.15 in 10.0 mi South 16.1 mph - N/A   Clear
8:53 PM 43.0 °F 35.4 °F 37.0 °F 80% 30.18 in 10.0 mi South 16.1 mph - N/A   Clear
9:53 PM 41.0 °F 32.2 °F 37.9 °F 89% 30.18 in 10.0 mi South 18.4 mph - N/A   Clear
10:53 PM 39.9 °F 30.5 °F 37.0 °F 89% 30.17 in 10.0 mi South 19.6 mph - N/A   Clear
11:53 PM 39.9 °F 30.2 °F 37.0 °F 89% 30.16 in 10.0 mi South 20.7 mph - N/A   Clear